Regional Weather Roundup
Issued by NWS

Home | Current Version | Previous Version | Graphics & Text | Print | Product List | Glossary On
Versions: 1 2 3 4 5 6 7 8 9 10 11 12 13 14 15 16 17 18 19 20 21 22 23 24 25 26 27 28 29 30 31 32 33 34 35 36 37 38 39 40 41 42 43 44 45 46 47 48 49 50
000
ASUS43 KLSX 231057
RWRMO

WEATHER SUMMARY FOR MISSOURI
NATIONAL WEATHER SERVICE SPRINGFIELD MO
600 AM CDT MON OCT 23 2017

NOTE: "FAIR" INDICATES FEW OR NO CLOUDS BELOW 12,000 FEET WITH NO
       SIGNIFICANT WEATHER AND/OR OBSTRUCTIONS TO VISIBILITY.
       CURRENT SKY AND/OR WEATHER CONDITIONS ARE NOT AVAILABLE FOR
       CHILLICOTHE AND FARMINGTON.

MOZ001>031-035>038-043-044-053-054-231200-
...NORTHERN AND WESTERN MISSOURI...

CITY           SKY/WX    TMP DP  RH WIND       PRES   REMARKS
KANSAS CTY INT CLEAR     45  39  79 S8        29.93F
LEE`S SUMMIT   CLEAR     47  41  80 S9        29.95F
ST JOSEPH      CLEAR     44  40  85 S6        29.92F
CHILLICOTHE      N/A     41  40  96 CALM      29.95F

$$
MOZ066>068-077>081-088>096-101>105-231200-
...SOUTHWEST MISSOURI...

CITY           SKY/WX    TMP DP  RH WIND       PRES   REMARKS
SPRINGFIELD    CLEAR     42  40  92 SW3       30.01S
JOPLIN         CLEAR     45  44  97 CALM      30.02F

$$
MOZ032>034-039>042-045>050-055>058-069>072-231200-
...CENTRAL MISSOURI...

CITY           SKY/WX    TMP DP  RH WIND       PRES   REMARKS
COLUMBIA       NOT AVBL
JEFFERSON CITY CLOUDY    51  47  86 NW3       29.99R
ROLLA          PTCLDY    49  47  93 NW10      29.97F
SEDALIA        CLEAR     44  43  96 SW8       29.98F
WARRENSBURG    CLEAR     41  37  87 S3        29.97F

$$
MOZ051-052-059>065-231200-
...EAST CENTRAL MISSOURI...

CITY           SKY/WX    TMP DP  RH WIND       PRES   REMARKS
ST LOUIS INTL  CLOUDY    52  51  97 W9        29.94R

$$
MOZ072>076-082>087-097>100-106>115-231200-
...SOUTH CENTRAL AND SOUTHEAST MISSOURI...

CITY           SKY/WX    TMP DP  RH WIND       PRES   REMARKS
CAPE GIRARDEAU CLOUDY    52  50  93 NW10      29.90F FOG
POPLAR BLUFF   CLOUDY    52  50  93 NW6       29.93S
WEST PLAINS    CLOUDY    50  46  86 W5        29.98R

$$



USA.gov is the U.S. government's official web portal to all federal, state and local government web resources and services.